DW6005 Murcia ES current weather conditions

sailwx.info

Wind from 074

Air temperature 22.2° C
Dewpoint 19.8° C

Last reported at 2018-Jul-19 03:39 UTC.
Time now 2018-Jul-19 04:13 UTC

Location: N 38°03' W 001°06'.
View on Google Maps.

See reports from other nearby stations

  
Tides and Currents Weather Stations Pressure Air Temp Water Temp Dewpoint Dewpoint Depression Visibility Wind Speed Wind Dir Waves Ship Positions
date/time (UTC)wind fromknots sea level pressurealtimeterstation pressurevisibilityair tempwater tempwave heightnotes
2018-Jul-19 03:39 074 22.2
2018-Jul-19 03:24 074 22.8
2018-Jul-19 03:09 074 22.2
2018-Jul-19 02:54 074 22.2
2018-Jul-19 02:39 075 22.8
2018-Jul-19 02:24 075 23.3
2018-Jul-19 02:09 074 23.3
2018-Jul-19 01:54 074 23.3
2018-Jul-19 01:39 074 23.3
2018-Jul-19 01:24 074 23.3
2018-Jul-19 01:09 074 23.3
2018-Jul-19 00:54 074 23.3
2018-Jul-19 00:39 074 23.9
2018-Jul-19 00:24 074 23.9
2018-Jul-19 00:09 074 23.9
2018-Jul-18 23:54 074 23.9
2018-Jul-18 23:39 074 23.9
2018-Jul-18 23:23 074 24.4
2018-Jul-18 23:08 074 24.4
2018-Jul-18 22:53 074 1 gusting 3 24.4
2018-Jul-18 22:38 078 1 gusting 3 24.4
2018-Jul-18 22:23 080 0 gusting 3 24.4
2018-Jul-18 22:08 079 1 gusting 2 24.4
2018-Jul-18 21:53 079 1 gusting 2 24.4
2018-Jul-18 21:38 079 24.4
2018-Jul-18 21:23 078 2 gusting 4 24.4
2018-Jul-18 21:08 088 2 gusting 5 25.0
2018-Jul-18 20:53 074 1 gusting 5 25.0
2018-Jul-18 20:38 105 1 gusting 5 25.6
2018-Jul-18 20:23 095 3 gusting 6 25.6
2018-Jul-18 20:08 087 3 gusting 6 25.6
2018-Jul-18 19:53 069 4 gusting 6 26.1
2018-Jul-18 19:38 070 3 gusting 6 26.1
2018-Jul-18 19:23 074 3 gusting 8 26.1
2018-Jul-18 19:08 090 5 gusting 9 26.7
2018-Jul-18 18:53 075 6 gusting 9 27.2
2018-Jul-18 18:38 092 6 gusting 11 27.2
2018-Jul-18 18:23 101 6 gusting 11 27.8
2018-Jul-18 18:08 094 6 gusting 12 28.3
2018-Jul-18 17:53 092 6 gusting 11 28.9
2018-Jul-18 17:38 078 6 gusting 12 28.9
2018-Jul-18 17:23 050 7 gusting 13 29.4
2018-Jul-18 17:08 091 7 gusting 11 30.0
2018-Jul-18 16:53 054 8 gusting 13 30.0
2018-Jul-18 16:38 096 6 gusting 13 30.6
2018-Jul-18 16:23 093 6 gusting 12 30.6
2018-Jul-18 16:08 112 6 gusting 12 31.1
2018-Jul-18 15:53 111 6 gusting 12 31.1
2018-Jul-18 15:38 069 6 gusting 12 31.1
2018-Jul-18 15:23 094 6 gusting 12 31.7
2018-Jul-18 15:08 082 6 gusting 12 32.2
2018-Jul-18 14:53 073 7 gusting 12 32.2
2018-Jul-18 14:38 086 3 gusting 10 31.7
2018-Jul-18 14:23 085 4 gusting 10 31.7
2018-Jul-18 14:08 070 6 gusting 11 31.7
2018-Jul-18 13:53 106 4 gusting 10 31.7
2018-Jul-18 13:38 123 5 gusting 10 31.7
2018-Jul-18 13:23 098 5 gusting 10 31.1
2018-Jul-18 13:08 105 2 gusting 9 31.7
2018-Jul-18 12:53 116 1 gusting 9 31.1
2018-Jul-18 12:38 115 4 gusting 10 30.6
2018-Jul-18 12:23 075 5 gusting 9 30.6
2018-Jul-18 12:08 070 4 gusting 10 30.6
2018-Jul-18 11:52 099 3 gusting 9 30.6
2018-Jul-18 11:37 078 2 gusting 9 30.0
2018-Jul-18 11:22 120 2 gusting 8 30.0
2018-Jul-18 11:07 111 6 gusting 9 30.0
2018-Jul-18 10:52 072 2 gusting 7 30.0
2018-Jul-18 10:37 057 5 gusting 8 29.4
2018-Jul-18 10:22 026 2 gusting 7 29.4
2018-Jul-18 10:07 033 1 gusting 9 28.9
2018-Jul-18 09:52 032 3 gusting 6 28.9
2018-Jul-18 09:37 077 2 gusting 7 28.9
2018-Jul-18 09:22 125 2 gusting 7 28.9
2018-Jul-18 09:07 113 1 gusting 6 28.9
2018-Jul-18 08:52 083 0 gusting 6 28.9
2018-Jul-18 08:37 110 28.3
2018-Jul-18 08:22 255 27.8
2018-Jul-18 08:07 184 26.7
2018-Jul-18 07:52 194 26.1
2018-Jul-18 07:37 213 26.1
2018-Jul-18 07:22 159 25.6
2018-Jul-18 07:07 202 25.0
2018-Jul-18 06:52 174 25.0
2018-Jul-18 06:37 005 24.4
2018-Jul-18 06:22 360 23.9
2018-Jul-18 06:06 217 23.3
2018-Jul-18 05:51 217 23.3
2018-Jul-18 05:36 224 0 gusting 4 22.8
2018-Jul-18 05:21 226 22.2
2018-Jul-18 05:06 246 22.2
2018-Jul-18 04:51 225 22.8
2018-Jul-18 04:36 182 22.8
2018-Jul-18 04:21 178 22.8
2018-Jul-18 04:06 192 23.3
2018-Jul-18 03:51 279 23.3
2018-Jul-18 03:36 279 23.3
2018-Jul-18 03:21 279 23.9
2018-Jul-18 03:06 260 23.9
2018-Jul-18 02:51 244 23.9
2018-Jul-18 02:36 290 0 gusting 4 23.9
2018-Jul-18 02:21 078 23.3
2018-Jul-18 02:06 055 23.9
2018-Jul-18 01:51 240 23.9
2018-Jul-18 01:36 302 0 gusting 4 23.3
2018-Jul-18 01:21 097 23.3
2018-Jul-18 01:06 097 23.3
2018-Jul-18 00:51 098 23.3
2018-Jul-18 00:36 097 23.3
2018-Jul-18 00:21 100 23.9
2018-Jul-18 00:06 100 23.9
2018-Jul-17 23:51 088 23.9
2018-Jul-17 23:36 088 23.9
2018-Jul-17 23:21 088 24.4
2018-Jul-17 23:06 088 25.0
2018-Jul-17 22:50 088 25.0
2018-Jul-17 22:35 088 25.0
2018-Jul-17 22:20 088 25.0
2018-Jul-17 22:05 088 25.0
2018-Jul-17 21:50 088 25.6
2018-Jul-17 21:35 088 25.6
2018-Jul-17 21:20 088 25.6
2018-Jul-17 21:05 089 1 gusting 3 25.6
2018-Jul-17 20:50 079 0 gusting 2 25.6
2018-Jul-17 20:35 080 1 gusting 4 26.1
2018-Jul-17 20:20 083 1 gusting 5 26.1
2018-Jul-17 20:05 071 1 gusting 5 26.7
2018-Jul-17 19:50 082 2 gusting 4 26.7
2018-Jul-17 19:35 082 3 gusting 6 27.2
2018-Jul-17 19:20 082 4 gusting 7 27.2
2018-Jul-17 19:05 090 3 gusting 7 27.8
2018-Jul-17 18:50 070 4 gusting 7 28.3
2018-Jul-17 18:35 092 5 gusting 7 28.3
2018-Jul-17 18:20 087 5 gusting 8 28.9
2018-Jul-17 18:05 115 4 gusting 9 29.4
2018-Jul-17 17:50 071 6 gusting 10 29.4
2018-Jul-17 17:35 097 4 gusting 11 30.0
2018-Jul-17 17:20 101 6 gusting 10 30.0
2018-Jul-17 17:05 090 5 gusting 11 30.0
2018-Jul-17 16:50 072 6 gusting 10 30.6
2018-Jul-17 16:35 084 8 gusting 13 30.6
2018-Jul-17 16:20 101 7 gusting 14 31.1
2018-Jul-17 16:05 079 7 gusting 12 31.1
2018-Jul-17 15:50 088 7 gusting 12 31.1
2018-Jul-17 15:35 106 6 gusting 13 31.7
2018-Jul-17 15:20 100 5 gusting 11 31.7
2018-Jul-17 15:05 094 6 gusting 13 31.7
2018-Jul-17 14:50 088 5 gusting 11 31.7
2018-Jul-17 14:35 096 7 gusting 12 31.7
2018-Jul-17 14:20 078 7 gusting 12 31.7
2018-Jul-17 14:05 078 6 gusting 13 32.2
2018-Jul-17 13:50 093 8 gusting 13 32.2
2018-Jul-17 13:34 092 8 gusting 12 32.2
2018-Jul-17 13:20 076 6 gusting 11 32.2
2018-Jul-17 13:04 078 6 gusting 11 32.2
2018-Jul-17 12:49 067 6 gusting 10 31.7
2018-Jul-17 12:34 107 6 gusting 13 31.7
2018-Jul-17 12:19 096 6 gusting 13 31.7
2018-Jul-17 12:04 066 6 gusting 12 31.1
2018-Jul-17 11:49 088 6 gusting 12 31.1
2018-Jul-17 11:34 055 6 gusting 11 31.1
2018-Jul-17 11:19 128 7 gusting 13 31.1
2018-Jul-17 11:04 111 7 gusting 13 30.6
2018-Jul-17 10:49 082 6 gusting 11 30.6
2018-Jul-17 10:34 124 6 gusting 11 30.6
2018-Jul-17 10:19 078 3 gusting 9 30.0
2018-Jul-17 10:04 074 6 gusting 11 29.4
2018-Jul-17 09:49 040 4 gusting 8 29.4
2018-Jul-17 09:34 089 2 gusting 8 28.9
2018-Jul-17 09:19 091 4 gusting 7 28.3
2018-Jul-17 09:04 067 3 gusting 7 28.3
2018-Jul-17 08:49 033 0 gusting 4 27.8
2018-Jul-17 08:34 263 27.2
2018-Jul-17 08:19 266 27.2
2018-Jul-17 08:04 194 26.7
2018-Jul-17 07:48 250 26.1
2018-Jul-17 07:33 260 25.6
2018-Jul-17 07:18 281 25.0
2018-Jul-17 07:03 312 0 gusting 2 24.4
2018-Jul-17 06:48 011 24.4
2018-Jul-17 06:33 011 23.3
2018-Jul-17 06:18 011 0 gusting 1 23.3
2018-Jul-17 06:03 011 23.3
2018-Jul-17 05:48 011 22.8
2018-Jul-17 05:33 011 21.7
2018-Jul-17 05:18 011 21.1
2018-Jul-17 05:03 011 21.7
2018-Jul-17 04:48 011 21.7
2018-Jul-17 04:33 011 21.7
2018-Jul-17 04:18 011 21.7
2018-Jul-17 04:03 011 21.7